Location: *
(45.9500°N, 9.0833°E)
Time: 00:48:23
(UTC+00:00)

Vanguard 2 Rocket - Pass Details

Date: 20 June 2021
Orbit: 555 x 3325 km, 32.9° (Epoch: 03 August)

Event Time Altitude Azimuth Distance (km) Brightness Sun altitude
Rises 21:03:22 0° 260° (W) 7,263 11.8 -13.5°
Reaches altitude 10° 21:08:45 10° 256° (WSW) 6,088 11.3 -14.0°
Maximum altitude 21:25:32 47° 190° (S) 2,963 9.1 -15.5°
Enters shadow 21:35:02 15° 124° (SE) 3,720 9.5 -16.2°
Drops below altitude 10° 21:36:09 10° 121° (ESE) 3,964 - -16.3°
Sets 21:38:52 0° 115° (ESE) 4,636 - -16.5°
